Flag for Montserrat Weather past 2 weeks in Brades, Montserrat

Now
82 °F

Scattered clouds.


Feels Like: 89 °F
Forecast: 80 / 84 °F
Wind: 10 mph from East

Location: Vc Bird International Antigua Airport

Current Time: Aug 21, 2014 at 8:13:10 AM

Latest Report: Aug 21, 2014 at 7:00 AM


Visibility: N/A

Pressure: 29.92 "Hg

Humidity: 79%

Dew point: 75 °F

Location of BradesLocation

Historic Weather in Brades — Graph

°F

Brades temperature yesterday

Maximum temperature yesterday: 88 °F (at 11:00 AM)
Minimum temperature yesterday: 79 °F (at 2:00 AM)
Average temperature yesterday: 83 °F

Past Weeks' High & Low Weather Summary

 TemperatureHumidityPressure
High88 °F (Aug 20, 11:00 AM)94% (Aug 8, 1:00 PM)30.09 "Hg (Aug 8, 1:00 PM)
Low75 °F (Aug 8, 8:00 AM)62% (Aug 7, 2:00 PM)29.92 "Hg (Aug 18, 3:00 PM)
Average82 °F77%30.01 "Hg
* Reported Aug 6 7:00 AM — Aug 21 7:00 AM, Brades, Weather by CustomWeather, © 2014

Note: Actual official high and low records may vary slightly from our data, if they occured in-between our weather recording intervals... More about our weather records

Advertising

Brades weather history for previous 24 hours

 ConditionsComfort  
Time TempWeatherWind HumidityBarometerVisibility
7:00 AM
Aug 21
82 °FScattered clouds.10 mph79%29.92 "HgN/A
6:00 AM81 °FScattered clouds.12 mph84%29.92 "HgN/A
5:00 AM81 °FPassing clouds.16 mph84%29.92 "HgN/A
4:00 AM81 °FPassing clouds.15 mph84%29.92 "HgN/A
3:00 AM81 °FPassing clouds.13 mph84%29.92 "HgN/A
2:00 AM81 °FPassing clouds.13 mph84%29.95 "HgN/A
1:00 AM79 °FPassing clouds.9 mph89%29.98 "HgN/A
12:00 AM82 °FPassing clouds.13 mph74%29.98 "HgN/A
11:00 PM
Aug 20
82 °FPassing clouds.14 mph74%30.01 "HgN/A
10:00 PM82 °FPassing clouds.15 mph74%30.01 "HgN/A
9:00 PM82 °FPassing clouds.16 mph74%30.01 "HgN/A
8:00 PM82 °FPassing clouds.14 mph74%29.98 "HgN/A
7:00 PM82 °FPassing clouds.13 mph74%29.95 "HgN/A
6:00 PM82 °FScattered clouds.14 mph74%29.95 "HgN/A
5:00 PM84 °FScattered clouds.15 mph70%29.95 "HgN/A
4:00 PM86 °FScattered clouds.16 mph70%29.95 "HgN/A
3:00 PM86 °FPartly sunny.17 mph70%29.95 "HgN/A
2:00 PM86 °FScattered clouds.14 mph66%29.95 "HgN/A
1:00 PM86 °FScattered clouds.13 mph70%29.98 "HgN/A
12:00 PM86 °FScattered clouds.13 mph70%30.01 "HgN/A
11:00 AM88 °FPassing clouds.12 mph66%30.01 "HgN/A
10:00 AM86 °FPassing clouds.12 mph66%30.01 "HgN/A
9:00 AM86 °FPassing clouds.12 mph66%29.98 "HgN/A
8:00 AM84 °FPassing clouds.13 mph70%29.98 "HgN/A
Weather by CustomWeather, © 2014

See weather overviewHow to use our weather pages